#timestamp,LO_Frequency,Hit,StdDev 
1577952015.3,286047002.5,N
1577952035.1,286047000.2,N
1577952055.9,286047002.6,N
1577952075.7,286047001.7,N
1577952095.5,286047002.0,N
1577952115.4,286047001.6,N
1577952135.2,286046999.7,N
1577952155.1,286047000.0,N
1577952156.0,286047000.0,N
1577952175.8,286047001.0,N
1577952195.6,286047001.1,N
1577952215.5,286047001.1,N
1577952235.3,286047001.2,N
1577952255.1,286046998.1,N
1577952275.9,286046999.0,N
1577952295.7,286047000.3,N
1577952315.6,286046998.4,N
1577952335.4,286046999.0,N
1577952355.2,286046999.9,N
1577952375.1,286047000.3,N
1577952376.0,286047000.3,N
1577952395.8,286047002.6,N
1577952415.6,286046999.9,N
1577952435.5,286047001.1,N
1577952455.3,286046998.4,N
1577952475.2,286046998.5,N
1577952495.9,286046999.5,N
1577952515.7,286046999.3,N
1577952535.6,286046999.5,N
1577952555.4,286046996.8,N
1577952575.2,286046996.6,N
1577952595.1,286046996.7,N
1577952596.0,286046996.7,N
1577952615.8,286046998.3,N
1577952635.7,286046998.3,N
1577952655.5,286047000.3,N
1577952675.3,286046998.1,N
1577952695.2,286047000.5,N
1577952715.0,286047000.7,N
1577952715.9,286047000.7,N
1577952735.7,286046997.4,N
1577952755.6,286046994.0,Y
1577952775.4,286046993.4,P
1577952795.3,286046992.7,N
1577952815.1,286046992.7,N
1577952816.0,286046992.7,N
1577952835.8,286046989.0,Y
1577952855.7,286046992.1,P
1577952875.5,286046993.0,P
1577952895.4,286046992.2,P
1577952915.2,286046991.2,Y
1577952935.0,286046999.6,P
1577952935.9,286046999.6,N
1577952955.8,286046994.9,N
1577952975.6,286046995.9,N
1577952995.4,286046997.9,N
1577953015.3,286046997.9,N
1577953035.1,286046994.9,N
1577953055.9,286046999.5,N
1577953075.7,286046995.0,N
1577953095.5,286046995.6,N
1577953115.4,286046997.6,N
1577953135.2,286046997.1,N
1577953155.0,286046998.9,N
1577953155.9,286046998.9,N
1577953175.8,286046995.0,N
1577953195.6,286046995.5,N
1577953215.5,286046996.4,N
1577953235.3,286046996.3,N
1577953255.1,286046995.8,N
1577953275.9,286046997.6,N
1577953295.7,286046997.6,N
1577953315.5,286046997.0,N
1577953335.4,286046997.1,N
1577953355.2,286046997.4,N
1577953375.1,286046996.5,N
1577953376.0,286046996.5,N
1577953395.8,286046998.8,N
1577953415.6,286046998.5,N
1577953435.5,286047000.7,N
1577953455.3,286046999.9,N
1577953475.1,286046999.9,N
1577953495.9,286047001.0,N
1577953515.7,286047000.5,N
1577953535.6,286047002.6,N
1577953555.4,286047003.6,N
1577953575.2,286047003.6,N
1577953595.1,286047002.9,N
1577953596.0,286047002.9,N
1577953615.8,286047005.2,N
1577953635.6,286047005.7,N
1577953655.5,286047004.6,N
1577953675.3,286047003.6,N
1577953695.2,286047003.8,N
1577953715.9,286047001.5,N
1577953735.7,286047002.5,N
1577953755.6,286047001.9,N
1577953775.4,286047000.0,N
1577953795.2,286047001.2,N
1577953815.1,286046999.4,N
1577953816.0,286046999.4,N
1577953835.8,286047001.2,N
1577953855.7,286047001.2,N
1577953875.5,286047001.1,N
1577953895.3,286046998.3,N
1577953915.2,286047000.0,N
1577953935.0,286046999.9,N
1577953935.9,286046999.9,N
1577953955.7,286046999.0,N
1577953975.6,286046998.9,N
1577953995.4,286046995.4,N
1577954015.3,286046995.8,N
1577954035.1,286046994.3,N
1577954036.0,286046994.3,N
1577954055.8,286046996.1,N
1577954075.7,286046996.0,N
1577954095.5,286046996.1,N
1577954115.3,286046993.3,N
1577954135.2,286046994.5,N
1577954155.0,286046993.3,N
1577954155.9,286046993.3,N
1577954175.8,286046995.2,N
1577954195.6,286046993.4,N
1577954215.4,286046993.7,N
1577954235.3,286046995.9,N
1577954255.1,286046991.7,N
1577954275.8,286046992.5,N
1577954295.7,286046994.8,N
1577954315.5,286046991.9,N
1577954335.4,286046990.3,Y
1577954355.2,286046994.8,P
1577954375.0,286046994.4,P
1577954375.9,286046994.4,P
1577954395.8,286046994.4,Y
1577954415.6,286046999.3,P
1577954435.5,286046996.6,N
1577954455.3,286046996.8,N
1577954475.1,286046996.8,N
1577954495.9,286046995.6,Y
1577954515.7,286047000.5,P
1577954535.5,286046999.8,N
1577954555.4,286047000.1,N
1577954575.2,286046998.9,N
1577954595.1,286046998.8,N
1577954596.0,286046998.8,N
1577954615.8,286046996.6,Y
1577954635.6,286046998.7,P
1577954655.5,286046997.4,P
1577954675.3,286046997.2,P
1577954695.1,286046997.9,N
1577954715.9,286046997.7,Y
1577954735.7,286046996.6,P
1577954755.6,286046997.3,P
1577954775.4,286046996.1,P
1577954795.2,286046993.9,Y
1577954815.1,286046997.0,P
1577954816.0,286046997.0,P
1577954835.8,286046998.0,P
1577954855.7,286046995.1,Y
1577954875.5,286046997.7,P
1577954895.3,286046999.5,N
1577954915.2,286046999.5,N
1577954935.0,286046994.9,Y
1577954935.9,286046994.9,P
1577954955.8,286046995.0,N
1577954975.6,286046996.8,N
1577954995.4,286046996.5,N
1577955015.3,286046999.4,N
1577955035.1,286046998.5,N
1577955055.8,286046998.2,N
1577955075.7,286047001.7,N
1577955095.5,286047001.9,N
1577955115.3,286047002.7,N
1577955135.2,286047001.4,N
1577955155.0,286047004.2,N
1577955155.9,286047004.2,N
1577955175.8,286047002.8,N
1577955195.6,286047001.4,N
1577955215.4,286047004.2,N
1577955235.3,286047003.5,N
1577955255.1,286047003.5,N
1577955275.8,286047005.2,N
1577955295.7,286047005.1,N
1577955315.5,286047004.9,N
1577955335.4,286047005.0,N
1577955355.2,286047002.9,N
1577955375.0,286047003.4,N
1577955375.9,286047003.4,N
1577955395.8,286047001.7,N
1577955415.6,286047002.2,N
1577955435.4,286047000.4,N
1577955455.3,286046999.3,N
1577955475.1,286046998.9,N
1577955495.9,286046996.8,N
1577955515.7,286046995.4,N
1577955535.5,286046998.0,N
1577955555.4,286046995.0,N
1577955575.2,286046993.5,N
1577955595.0,286046995.7,N
1577955595.9,286046995.7,N
